Simultaneous Nadir Overpasses (SNOs) Predictions

Prediction of SNOs between GOES-15 and METOP-A Satellite Orbit:

Table of predicted SNOs for the next 14.0 days since TLE Epoch: 11/25/2011
Index Date Time (GOES-15) GOES-15 Lat,Lon METOP-A Lat,Lon Distance(km) Time Diff (sec)
1 11/26/2011 17:45:11 -0.17,-121.73 0.26,-123.68 221.80 80
2 11/27/2011 17:21:55 -0.18,-122.51 -1.01,-118.72 432.28 80
3 11/29/2011 05:40:58 0.16,-123.52 0.18,-123.35 19.63 80
4 11/30/2011 18:02:35 -0.15,-124.96 0.54,-127.97 343.36 80
5 12/01/2011 17:39:20 -0.16,-125.75 -0.79,-123.02 310.84 80
6 12/03/2011 06:01:02 0.14,-126.74 -0.08,-127.64 103.34 80
7 12/04/2011 18:20:00 -0.13,-128.19 0.80,-132.27 465.36 80
8 12/05/2011 17:56:44 -0.14,-128.97 -0.54,-127.32 188.60 80
9 12/07/2011 06:18:26 0.13,-129.95 -0.33,-131.94 227.44 80
10 12/08/2011 05:55:11 0.14,-130.74 1.01,-127.00 427.39 80




NCC Satellite Simultaneous Nadir Overpasses (SNOs) Prediction Service
